owner,sensor,date,latitude,longitude,vertical_datum,wind_speed,wind_to_direction,wind_speed_of_gust,qcFlag 
LOOP,urn:ioos:station:wmo:lopl1:1,2016-10-01T00:20:00Z,28.8850,-90.0250,10.0,3.4,8.0,4.8,'11111222,11111222,11111222' 
LOOP,urn:ioos:station:wmo:lopl1:1,2016-10-01T01:20:00Z,28.8850,-90.0250,10.0,5.0,12.0,7.0,'11111222,11111222,11111222' 
LOOP,urn:ioos:station:wmo:lopl1:1,2016-10-01T02:20:00Z,28.8850,-90.0250,10.0,3.2,26.0,5.2,'11111222,11111222,11111222' 
LOOP,urn:ioos:station:wmo:lopl1:1,2016-10-01T03:20:00Z,28.8850,-90.0250,10.0,3.6,35.0,5.3,'11111222,11111222,11111222' 
LOOP,urn:ioos:station:wmo:lopl1:1,2016-10-01T04:20:00Z,28.8850,-90.0250,10.0,3.6,51.0,5.9,'11111222,11111222,11111222' 
LOOP,urn:ioos:station:wmo:lopl1:1,2016-10-01T05:20:00Z,28.8850,-90.0250,10.0,4.7,28.0,5.9,'11111222,11111222,11111222' 
LOOP,urn:ioos:station:wmo:lopl1:1,2016-10-01T06:20:00Z,28.8850,-90.0250,10.0,4.0,68.0,5.1,'11111222,11111222,11111222' 
LOOP,urn:ioos:station:wmo:lopl1:1,2016-10-01T07:20:00Z,28.8850,-90.0250,10.0,3.7,52.0,4.9,'11111222,11111222,11111222' 
LOOP,urn:ioos:station:wmo:lopl1:1,2016-10-01T08:20:00Z,28.8850,-90.0250,10.0,4.2,67.0,6.7,'11111222,11111222,11111222' 
LOOP,urn:ioos:station:wmo:lopl1:1,2016-10-01T09:20:00Z,28.8850,-90.0250,10.0,5.1,77.0,6.6,'11111222,11111222,11111222' 
LOOP,urn:ioos:station:wmo:lopl1:1,2016-10-01T10:20:00Z,28.8850,-90.0250,10.0,3.7,71.0,5.2,'11111222,11111222,11111222' 
LOOP,urn:ioos:station:wmo:lopl1:1,2016-10-01T11:20:00Z,28.8850,-90.0250,10.0,3.8,44.0,5.1,'11111222,11111222,11111222' 
LOOP,urn:ioos:station:wmo:lopl1:1,2016-10-01T12:20:00Z,28.8850,-90.0250,10.0,4.1,44.0,5.6,'11111222,11111222,11111222' 
LOOP,urn:ioos:station:wmo:lopl1:1,2016-10-01T13:20:00Z,28.8850,-90.0250,10.0,4.1,60.0,5.4,'11111222,11111222,11111222' 
LOOP,urn:ioos:station:wmo:lopl1:1,2016-10-01T14:20:00Z,28.8850,-90.0250,10.0,4.1,70.0,5.2,'11111222,11111222,11111222' 
LOOP,urn:ioos:station:wmo:lopl1:1,2016-10-01T15:20:00Z,28.8850,-90.0250,10.0,4.6,29.0,5.9,'11111222,11111222,11111222' 
LOOP,urn:ioos:station:wmo:lopl1:1,2016-10-01T16:20:00Z,28.8850,-90.0250,10.0,5.6,46.0,7.2,'11111222,11111222,11111222' 
LOOP,urn:ioos:station:wmo:lopl1:1,2016-10-01T17:20:00Z,28.8850,-90.0250,10.0,4.6,66.0,6.1,'11111222,11111222,11111222' 
LOOP,urn:ioos:station:wmo:lopl1:1,2016-10-01T18:20:00Z,28.8850,-90.0250,10.0,3.9,55.0,5.2,'11111222,11111222,11111222' 
LOOP,urn:ioos:station:wmo:lopl1:1,2016-10-01T19:20:00Z,28.8850,-90.0250,10.0,3.5,42.0,4.5,'11111222,11111222,11111222' 
LOOP,urn:ioos:station:wmo:lopl1:1,2016-10-01T20:20:00Z,28.8850,-90.0250,10.0,2.3,71.0,4.0,'11111222,11111222,11111222' 
LOOP,urn:ioos:station:wmo:lopl1:1,2016-10-01T21:20:00Z,28.8850,-90.0250,10.0,2.8,30.0,4.0,'11111222,11111222,11111222' 
LOOP,urn:ioos:station:wmo:lopl1:1,2016-10-01T22:20:00Z,28.8850,-90.0250,10.0,3.9,68.0,5.1,'11111222,11111222,11111222' 
LOOP,urn:ioos:station:wmo:lopl1:1,2016-10-01T23:25:00Z,28.8850,-90.0250,10.0,4.1,43.0,5.7,'11111222,11111222,11111222' 
LOOP,urn:ioos:station:wmo:lopl1:1,2016-10-02T00:25:00Z,28.8850,-90.0250,10.0,3.9,62.0,4.8,'11111222,11111222,11111222' 
LOOP,urn:ioos:station:wmo:lopl1:1,2016-10-02T01:25:00Z,28.8850,-90.0250,10.0,4.6,77.0,5.4,'11111222,11111222,11111222' 
LOOP,urn:ioos:station:wmo:lopl1:1,2016-10-02T02:25:00Z,28.8850,-90.0250,10.0,6.0,93.0,7.2,'11111222,11111222,11111222' 
LOOP,urn:ioos:station:wmo:lopl1:1,2016-10-02T03:25:00Z,28.8850,-90.0250,10.0,6.1,84.0,7.3,'11111222,11111222,11111222' 
LOOP,urn:ioos:station:wmo:lopl1:1,2016-10-02T04:25:00Z,28.8850,-90.0250,10.0,6.0,81.0,7.2,'11111222,11111222,11111222' 
LOOP,urn:ioos:station:wmo:lopl1:1,2016-10-02T05:25:00Z,28.8850,-90.0250,10.0,6.2,82.0,7.4,'11111222,11111222,11111222' 
LOOP,urn:ioos:station:wmo:lopl1:1,2016-10-02T06:25:00Z,28.8850,-90.0250,10.0,5.2,73.0,6.4,'11111222,11111222,11111222' 
LOOP,urn:ioos:station:wmo:lopl1:1,2016-10-02T07:25:00Z,28.8850,-90.0250,10.0,4.9,99.0,5.5,'11111222,11111222,11111222' 
LOOP,urn:ioos:station:wmo:lopl1:1,2016-10-02T08:25:00Z,28.8850,-90.0250,10.0,4.5,103.0,5.6,'11111222,11111222,11111222' 
LOOP,urn:ioos:station:wmo:lopl1:1,2016-10-02T09:25:00Z,28.8850,-90.0250,10.0,3.6,61.0,4.5,'11111222,11111222,11111222' 
LOOP,urn:ioos:station:wmo:lopl1:1,2016-10-02T10:25:00Z,28.8850,-90.0250,10.0,5.8,46.0,7.4,'11111222,11111222,11111222' 
LOOP,urn:ioos:station:wmo:lopl1:1,2016-10-02T11:25:00Z,28.8850,-90.0250,10.0,6.4,79.0,7.4,'11111222,11111222,11111222' 
LOOP,urn:ioos:station:wmo:lopl1:1,2016-10-02T12:25:00Z,28.8850,-90.0250,10.0,6.6,70.0,8.0,'11111222,11111222,11111222' 
LOOP,urn:ioos:station:wmo:lopl1:1,2016-10-02T13:25:00Z,28.8850,-90.0250,10.0,5.9,66.0,7.9,'11111222,11111222,11111222' 
LOOP,urn:ioos:station:wmo:lopl1:1,2016-10-02T14:25:00Z,28.8850,-90.0250,10.0,6.0,41.0,6.8,'11111222,11111222,11111222' 
LOOP,urn:ioos:station:wmo:lopl1:1,2016-10-02T15:25:00Z,28.8850,-90.0250,10.0,6.6,68.0,8.2,'11111222,11111222,11111222' 
LOOP,urn:ioos:station:wmo:lopl1:1,2016-10-02T16:25:00Z,28.8850,-90.0250,10.0,7.1,43.0,8.7,'11111222,11111222,11111222' 
LOOP,urn:ioos:station:wmo:lopl1:1,2016-10-02T17:25:00Z,28.8850,-90.0250,10.0,7.7,84.0,8.5,'11111222,11111222,11111222' 
LOOP,urn:ioos:station:wmo:lopl1:1,2016-10-02T18:25:00Z,28.8850,-90.0250,10.0,7.2,69.0,8.6,'11111222,11111222,11111222' 
LOOP,urn:ioos:station:wmo:lopl1:1,2016-10-02T19:25:00Z,28.8850,-90.0250,10.0,6.9,61.0,7.9,'11111222,11111222,11111222' 
LOOP,urn:ioos:station:wmo:lopl1:1,2016-10-02T20:25:00Z,28.8850,-90.0250,10.0,6.4,71.0,7.3,'11111222,11111222,11111222' 
LOOP,urn:ioos:station:wmo:lopl1:1,2016-10-02T21:25:00Z,28.8850,-90.0250,10.0,6.2,74.0,7.1,'11111222,11111222,11111222' 
LOOP,urn:ioos:station:wmo:lopl1:1,2016-10-02T22:25:00Z,28.8850,-90.0250,10.0,6.3,70.0,7.8,'11111222,11111222,11111222' 
LOOP,urn:ioos:station:wmo:lopl1:1,2016-10-02T23:25:00Z,28.8850,-90.0250,10.0,6.0,69.0,7.5,'11111222,11111222,11111222' 
LOOP,urn:ioos:station:wmo:lopl1:1,2016-10-03T00:25:00Z,28.8850,-90.0250,10.0,6.6,60.0,7.9,'11111222,11111222,11111222' 
LOOP,urn:ioos:station:wmo:lopl1:1,2016-10-03T01:25:00Z,28.8850,-90.0250,10.0,7.5,29.0,9.6,'11111222,11111222,11111222' 
LOOP,urn:ioos:station:wmo:lopl1:1,2016-10-03T02:25:00Z,28.8850,-90.0250,10.0,6.1,68.0,7.5,'11111222,11111222,11111222' 
LOOP,urn:ioos:station:wmo:lopl1:1,2016-10-03T03:25:00Z,28.8850,-90.0250,10.0,4.9,42.0,5.9,'11111222,11111222,11111222' 
LOOP,urn:ioos:station:wmo:lopl1:1,2016-10-03T04:25:00Z,28.8850,-90.0250,10.0,5.7,47.0,8.0,'11111222,11111222,11111222' 
LOOP,urn:ioos:station:wmo:lopl1:1,2016-10-03T05:25:00Z,28.8850,-90.0250,10.0,4.1,53.0,5.4,'11111222,11111222,11111222' 
LOOP,urn:ioos:station:wmo:lopl1:1,2016-10-03T06:25:00Z,28.8850,-90.0250,10.0,5.3,65.0,6.7,'11111222,11111222,11111222' 
LOOP,urn:ioos:station:wmo:lopl1:1,2016-10-03T07:25:00Z,28.8850,-90.0250,10.0,5.3,71.0,7.3,'11111222,11111222,11111222' 
LOOP,urn:ioos:station:wmo:lopl1:1,2016-10-03T08:25:00Z,28.8850,-90.0250,10.0,5.4,56.0,6.8,'11111222,11111222,11111222' 
LOOP,urn:ioos:station:wmo:lopl1:1,2016-10-03T09:25:00Z,28.8850,-90.0250,10.0,5.5,88.0,7.1,'11111222,11111222,11111222' 
LOOP,urn:ioos:station:wmo:lopl1:1,2016-10-03T10:25:00Z,28.8850,-90.0250,10.0,5.6,47.0,7.4,'11111222,11111222,11111222' 
LOOP,urn:ioos:station:wmo:lopl1:1,2016-10-03T11:25:00Z,28.8850,-90.0250,10.0,5.7,43.0,7.3,'11111222,11111222,11111222' 
LOOP,urn:ioos:station:wmo:lopl1:1,2016-10-03T12:25:00Z,28.8850,-90.0250,10.0,6.5,29.0,8.5,'11111222,11111222,11111222' 
LOOP,urn:ioos:station:wmo:lopl1:1,2016-10-03T13:25:00Z,28.8850,-90.0250,10.0,6.4,37.0,7.9,'11111222,11111222,11111222' 
LOOP,urn:ioos:station:wmo:lopl1:1,2016-10-03T14:25:00Z,28.8850,-90.0250,10.0,5.8,44.0,7.7,'11111222,11111222,11111222' 
LOOP,urn:ioos:station:wmo:lopl1:1,2016-10-03T15:25:00Z,28.8850,-90.0250,10.0,6.5,46.0,8.2,'11111222,11111222,11111222' 
LOOP,urn:ioos:station:wmo:lopl1:1,2016-10-03T16:25:00Z,28.8850,-90.0250,10.0,6.9,30.0,9.0,'11111222,11111222,11111222' 
LOOP,urn:ioos:station:wmo:lopl1:1,2016-10-03T17:25:00Z,28.8850,-90.0250,10.0,8.2,19.0,10.7,'11111222,11111222,11111222' 
LOOP,urn:ioos:station:wmo:lopl1:1,2016-10-03T18:25:00Z,28.8850,-90.0250,10.0,7.4,34.0,9.5,'11111222,11111222,11111222' 
LOOP,urn:ioos:station:wmo:lopl1:1,2016-10-03T19:25:00Z,28.8850,-90.0250,10.0,7.0,44.0,10.3,'11111222,11111222,11111222' 
LOOP,urn:ioos:station:wmo:lopl1:1,2016-10-03T20:25:00Z,28.8850,-90.0250,10.0,7.3,62.0,9.3,'11111222,11111222,11111222' 
LOOP,urn:ioos:station:wmo:lopl1:1,2016-10-03T21:25:00Z,28.8850,-90.0250,10.0,6.3,40.0,8.9,'11111222,11111222,11111222' 
LOOP,urn:ioos:station:wmo:lopl1:1,2016-10-03T22:25:00Z,28.8850,-90.0250,10.0,6.3,65.0,8.2,'11111222,11111222,11111222' 
LOOP,urn:ioos:station:wmo:lopl1:1,2016-10-03T23:25:00Z,28.8850,-90.0250,10.0,6.1,47.0,7.6,'11111222,11111222,11111222' 
LOOP,urn:ioos:station:wmo:lopl1:1,2016-10-04T00:25:00Z,28.8850,-90.0250,10.0,6.4,53.0,7.8,'11111222,11111222,11111222' 
LOOP,urn:ioos:station:wmo:lopl1:1,2016-10-04T01:25:00Z,28.8850,-90.0250,10.0,6.9,71.0,7.6,'11111222,11111222,11111222' 
LOOP,urn:ioos:station:wmo:lopl1:1,2016-10-04T02:25:00Z,28.8850,-90.0250,10.0,6.9,81.0,8.0,'11111222,11111222,11111222' 
LOOP,urn:ioos:station:wmo:lopl1:1,2016-10-04T03:25:00Z,28.8850,-90.0250,10.0,5.6,85.0,6.7,'11111222,11111222,11111222' 
LOOP,urn:ioos:station:wmo:lopl1:1,2016-10-04T04:25:00Z,28.8850,-90.0250,10.0,5.7,100.0,6.6,'11111222,11111222,11111222' 
LOOP,urn:ioos:station:wmo:lopl1:1,2016-10-04T05:25:00Z,28.8850,-90.0250,10.0,6.1,114.0,6.7,'11111222,11111222,11111222' 
LOOP,urn:ioos:station:wmo:lopl1:1,2016-10-04T06:30:00Z,28.8850,-90.0250,10.0,5.9,122.0,6.4,'11111222,11111222,11111222' 
LOOP,urn:ioos:station:wmo:lopl1:1,2016-10-04T07:30:00Z,28.8850,-90.0250,10.0,5.8,125.0,6.9,'11111222,11111222,11111222' 
LOOP,urn:ioos:station:wmo:lopl1:1,2016-10-04T08:30:00Z,28.8850,-90.0250,10.0,5.0,133.0,5.7,'11111222,11111222,11111222' 
LOOP,urn:ioos:station:wmo:lopl1:1,2016-10-04T09:30:00Z,28.8850,-90.0250,10.0,3.9,128.0,4.4,'11111222,11111222,11111222' 
LOOP,urn:ioos:station:wmo:lopl1:1,2016-10-04T10:30:00Z,28.8850,-90.0250,10.0,3.9,112.0,4.5,'11111222,11111222,11111222' 
LOOP,urn:ioos:station:wmo:lopl1:1,2016-10-04T11:30:00Z,28.8850,-90.0250,10.0,3.6,109.0,4.3,'11111222,11111222,11111222' 
LOOP,urn:ioos:station:wmo:lopl1:1,2016-10-04T12:30:00Z,28.8850,-90.0250,10.0,5.3,91.0,6.0,'11111222,11111222,11111222' 
LOOP,urn:ioos:station:wmo:lopl1:1,2016-10-04T13:30:00Z,28.8850,-90.0250,10.0,5.4,69.0,6.0,'11111222,11111222,11111222' 
LOOP,urn:ioos:station:wmo:lopl1:1,2016-10-04T14:30:00Z,28.8850,-90.0250,10.0,5.0,69.0,5.8,'11111222,11111222,11111222' 
LOOP,urn:ioos:station:wmo:lopl1:1,2016-10-04T15:30:00Z,28.8850,-90.0250,10.0,5.2,85.0,6.1,'11111222,11111222,11111222' 
LOOP,urn:ioos:station:wmo:lopl1:1,2016-10-04T16:30:00Z,28.8850,-90.0250,10.0,5.4,87.0,6.4,'11111222,11111222,11111222' 
LOOP,urn:ioos:station:wmo:lopl1:1,2016-10-04T17:30:00Z,28.8850,-90.0250,10.0,4.9,80.0,5.5,'11111222,11111222,11111222' 
LOOP,urn:ioos:station:wmo:lopl1:1,2016-10-04T18:30:00Z,28.8850,-90.0250,10.0,5.4,96.0,6.1,'11111222,11111222,11111222' 
LOOP,urn:ioos:station:wmo:lopl1:1,2016-10-04T19:30:00Z,28.8850,-90.0250,10.0,5.4,105.0,6.0,'11111222,11111222,11111222' 
LOOP,urn:ioos:station:wmo:lopl1:1,2016-10-04T20:30:00Z,28.8850,-90.0250,10.0,4.9,111.0,5.6,'11111222,11111222,11111222' 
LOOP,urn:ioos:station:wmo:lopl1:1,2016-10-04T21:30:00Z,28.8850,-90.0250,10.0,5.8,116.0,6.4,'11111222,11111222,11111222' 
LOOP,urn:ioos:station:wmo:lopl1:1,2016-10-04T22:30:00Z,28.8850,-90.0250,10.0,6.0,124.0,6.6,'11111222,11111222,11111222' 
LOOP,urn:ioos:station:wmo:lopl1:1,2016-10-04T23:30:00Z,28.8850,-90.0250,10.0,6.6,110.0,7.4,'11111222,11111222,11111222' 
LOOP,urn:ioos:station:wmo:lopl1:1,2016-10-05T00:30:00Z,28.8850,-90.0250,10.0,6.8,110.0,7.6,'11111222,11111222,11111222' 
LOOP,urn:ioos:station:wmo:lopl1:1,2016-10-05T01:30:00Z,28.8850,-90.0250,10.0,7.2,119.0,8.0,'11111222,11111222,11111222' 
LOOP,urn:ioos:station:wmo:lopl1:1,2016-10-05T02:30:00Z,28.8850,-90.0250,10.0,6.5,105.0,7.1,'11111222,11111222,11111222' 
LOOP,urn:ioos:station:wmo:lopl1:1,2016-10-05T03:30:00Z,28.8850,-90.0250,10.0,7.9,107.0,8.6,'11111222,11111222,11111222' 
LOOP,urn:ioos:station:wmo:lopl1:1,2016-10-05T04:30:00Z,28.8850,-90.0250,10.0,7.7,105.0,8.4,'11111222,11111222,11111222' 
LOOP,urn:ioos:station:wmo:lopl1:1,2016-10-05T05:30:00Z,28.8850,-90.0250,10.0,7.1,103.0,7.9,'11111222,11111222,11111222' 
LOOP,urn:ioos:station:wmo:lopl1:1,2016-10-05T06:30:00Z,28.8850,-90.0250,10.0,6.9,94.0,7.7,'11111222,11111222,11111222' 
LOOP,urn:ioos:station:wmo:lopl1:1,2016-10-05T07:30:00Z,28.8850,-90.0250,10.0,7.8,120.0,9.0,'11111222,11111222,11111222' 
LOOP,urn:ioos:station:wmo:lopl1:1,2016-10-05T08:30:00Z,28.8850,-90.0250,10.0,7.7,116.0,8.5,'11111222,11111222,11111222' 
LOOP,urn:ioos:station:wmo:lopl1:1,2016-10-05T09:30:00Z,28.8850,-90.0250,10.0,6.6,111.0,7.2,'11111222,11111222,11111222' 
LOOP,urn:ioos:station:wmo:lopl1:1,2016-10-05T10:30:00Z,28.8850,-90.0250,10.0,3.7,-9999.0,7.5,'11111222,99999999,11111222' 
LOOP,urn:ioos:station:wmo:lopl1:1,2016-10-05T11:30:00Z,28.8850,-90.0250,10.0,6.5,89.0,7.4,'11111222,11111222,11111222' 
LOOP,urn:ioos:station:wmo:lopl1:1,2016-10-05T12:30:00Z,28.8850,-90.0250,10.0,6.4,99.0,7.6,'11111222,11111222,11111222' 
LOOP,urn:ioos:station:wmo:lopl1:1,2016-10-05T13:30:00Z,28.8850,-90.0250,10.0,5.8,98.0,6.7,'11111222,11111222,11111222' 
LOOP,urn:ioos:station:wmo:lopl1:1,2016-10-05T14:30:00Z,28.8850,-90.0250,10.0,6.3,87.0,7.2,'11111222,11111222,11111222' 
LOOP,urn:ioos:station:wmo:lopl1:1,2016-10-05T15:30:00Z,28.8850,-90.0250,10.0,7.7,96.0,8.3,'11111222,11111222,11111222' 
LOOP,urn:ioos:station:wmo:lopl1:1,2016-10-05T16:30:00Z,28.8850,-90.0250,10.0,9.0,82.0,10.2,'11111222,11111222,11111222' 
LOOP,urn:ioos:station:wmo:lopl1:1,2016-10-05T17:30:00Z,28.8850,-90.0250,10.0,8.9,82.0,9.6,'11111222,11111222,11111222' 
LOOP,urn:ioos:station:wmo:lopl1:1,2016-10-05T18:30:00Z,28.8850,-90.0250,10.0,7.6,93.0,8.7,'11111222,11111222,11111222' 
LOOP,urn:ioos:station:wmo:lopl1:1,2016-10-05T19:30:00Z,28.8850,-90.0250,10.0,8.3,76.0,9.1,'11111222,11111222,11111222' 
LOOP,urn:ioos:station:wmo:lopl1:1,2016-10-05T20:30:00Z,28.8850,-90.0250,10.0,8.7,71.0,10.0,'11111222,11111222,11111222' 
LOOP,urn:ioos:station:wmo:lopl1:1,2016-10-05T21:30:00Z,28.8850,-90.0250,10.0,9.7,69.0,11.0,'11111222,11111222,11111222' 
LOOP,urn:ioos:station:wmo:lopl1:1,2016-10-05T22:30:00Z,28.8850,-90.0250,10.0,7.9,68.0,9.7,'11111222,11111222,11111222' 
LOOP,urn:ioos:station:wmo:lopl1:1,2016-10-05T23:30:00Z,28.8850,-90.0250,10.0,8.9,58.0,10.6,'11111222,11111222,11111222' 
LOOP,urn:ioos:station:wmo:lopl1:1,2016-10-06T00:35:00Z,28.8850,-90.0250,10.0,8.8,70.0,9.9,'11111222,11111222,11111222' 
LOOP,urn:ioos:station:wmo:lopl1:1,2016-10-06T01:35:00Z,28.8850,-90.0250,10.0,9.7,76.0,11.6,'11111222,11111222,11111222' 
LOOP,urn:ioos:station:wmo:lopl1:1,2016-10-06T02:35:00Z,28.8850,-90.0250,10.0,10.3,78.0,11.2,'11111222,11111222,11111222' 
LOOP,urn:ioos:station:wmo:lopl1:1,2016-10-06T03:35:00Z,28.8850,-90.0250,10.0,10.5,71.0,12.1,'11111222,11111222,11111222' 
LOOP,urn:ioos:station:wmo:lopl1:1,2016-10-06T04:35:00Z,28.8850,-90.0250,10.0,9.2,87.0,10.5,'11111222,11111222,11111222' 
LOOP,urn:ioos:station:wmo:lopl1:1,2016-10-06T05:35:00Z,28.8850,-90.0250,10.0,8.2,71.0,9.6,'11111222,11111222,11111222' 
LOOP,urn:ioos:station:wmo:lopl1:1,2016-10-06T06:35:00Z,28.8850,-90.0250,10.0,6.5,55.0,7.8,'11111222,11111222,11111222' 
LOOP,urn:ioos:station:wmo:lopl1:1,2016-10-06T07:35:00Z,28.8850,-90.0250,10.0,6.6,44.0,8.3,'11111222,11111222,11111222' 
LOOP,urn:ioos:station:wmo:lopl1:1,2016-10-06T08:35:00Z,28.8850,-90.0250,10.0,6.8,34.0,9.1,'11111222,11111222,11111222' 
LOOP,urn:ioos:station:wmo:lopl1:1,2016-10-06T09:35:00Z,28.8850,-90.0250,10.0,7.3,35.0,9.4,'11111222,11111222,11111222' 
LOOP,urn:ioos:station:wmo:lopl1:1,2016-10-06T10:35:00Z,28.8850,-90.0250,10.0,6.7,45.0,8.7,'11111222,11111222,11111222' 
LOOP,urn:ioos:station:wmo:lopl1:1,2016-10-06T11:35:00Z,28.8850,-90.0250,10.0,7.2,64.0,9.1,'11111222,11111222,11111222' 
LOOP,urn:ioos:station:wmo:lopl1:1,2016-10-06T12:35:00Z,28.8850,-90.0250,10.0,8.5,70.0,9.8,'11111222,11111222,11111222' 
LOOP,urn:ioos:station:wmo:lopl1:1,2016-10-06T13:35:00Z,28.8850,-90.0250,10.0,8.0,61.0,9.4,'11111222,11111222,11111222' 
LOOP,urn:ioos:station:wmo:lopl1:1,2016-10-06T14:35:00Z,28.8850,-90.0250,10.0,8.1,48.0,9.3,'11111222,11111222,11111222' 
LOOP,urn:ioos:station:wmo:lopl1:1,2016-10-06T15:35:00Z,28.8850,-90.0250,10.0,7.8,63.0,9.0,'11111222,11111222,11111222' 
LOOP,urn:ioos:station:wmo:lopl1:1,2016-10-06T16:35:00Z,28.8850,-90.0250,10.0,7.3,60.0,8.4,'11111222,11111222,11111222' 
LOOP,urn:ioos:station:wmo:lopl1:1,2016-10-06T17:35:00Z,28.8850,-90.0250,10.0,6.0,46.0,7.3,'11111222,11111222,11111222' 
LOOP,urn:ioos:station:wmo:lopl1:1,2016-10-06T18:35:00Z,28.8850,-90.0250,10.0,7.2,64.0,8.5,'11111222,11111222,11111222' 
LOOP,urn:ioos:station:wmo:lopl1:1,2016-10-06T19:35:00Z,28.8850,-90.0250,10.0,5.9,51.0,7.6,'11111222,11111222,11111222' 
LOOP,urn:ioos:station:wmo:lopl1:1,2016-10-06T20:35:00Z,28.8850,-90.0250,10.0,6.4,55.0,8.5,'11111222,11111222,11111222' 
LOOP,urn:ioos:station:wmo:lopl1:1,2016-10-06T21:35:00Z,28.8850,-90.0250,10.0,7.6,67.0,9.3,'11111222,11111222,11111222' 
LOOP,urn:ioos:station:wmo:lopl1:1,2016-10-06T22:35:00Z,28.8850,-90.0250,10.0,7.8,46.0,10.4,'11111222,11111222,11111222' 
LOOP,urn:ioos:station:wmo:lopl1:1,2016-10-06T23:35:00Z,28.8850,-90.0250,10.0,8.5,50.0,10.9,'11111222,11111222,11111222' 
LOOP,urn:ioos:station:wmo:lopl1:1,2016-10-07T00:35:00Z,28.8850,-90.0250,10.0,9.7,29.0,12.6,'11111222,11111222,11111222' 
LOOP,urn:ioos:station:wmo:lopl1:1,2016-10-07T01:35:00Z,28.8850,-90.0250,10.0,8.3,54.0,11.0,'11111222,11111222,11111222' 
LOOP,urn:ioos:station:wmo:lopl1:1,2016-10-07T02:35:00Z,28.8850,-90.0250,10.0,8.4,49.0,10.2,'11111222,11111222,11111222' 
LOOP,urn:ioos:station:wmo:lopl1:1,2016-10-07T03:35:00Z,28.8850,-90.0250,10.0,7.9,69.0,9.3,'11111222,11111222,11111222' 
LOOP,urn:ioos:station:wmo:lopl1:1,2016-10-07T04:35:00Z,28.8850,-90.0250,10.0,8.4,62.0,10.2,'11111222,11111222,11111222' 
LOOP,urn:ioos:station:wmo:lopl1:1,2016-10-07T05:35:00Z,28.8850,-90.0250,10.0,6.5,67.0,8.0,'11111222,11111222,11111222' 
LOOP,urn:ioos:station:wmo:lopl1:1,2016-10-07T06:35:00Z,28.8850,-90.0250,10.0,5.8,50.0,7.6,'11111222,11111222,11111222' 
LOOP,urn:ioos:station:wmo:lopl1:1,2016-10-07T07:35:00Z,28.8850,-90.0250,10.0,7.7,65.0,8.7,'11111222,11111222,11111222' 
LOOP,urn:ioos:station:wmo:lopl1:1,2016-10-07T08:35:00Z,28.8850,-90.0250,10.0,6.2,62.0,7.8,'11111222,11111222,11111222' 
LOOP,urn:ioos:station:wmo:lopl1:1,2016-10-07T09:35:00Z,28.8850,-90.0250,10.0,6.4,38.0,7.9,'11111222,11111222,11111222' 
LOOP,urn:ioos:station:wmo:lopl1:1,2016-10-07T10:35:00Z,28.8850,-90.0250,10.0,6.9,19.0,8.3,'11111222,11111222,11111222' 
LOOP,urn:ioos:station:wmo:lopl1:1,2016-10-07T11:35:00Z,28.8850,-90.0250,10.0,7.4,37.0,10.1,'11111222,11111222,11111222' 
LOOP,urn:ioos:station:wmo:lopl1:1,2016-10-07T12:35:00Z,28.8850,-90.0250,10.0,7.0,28.0,8.2,'11111222,11111222,11111222' 
LOOP,urn:ioos:station:wmo:lopl1:1,2016-10-07T13:35:00Z,28.8850,-90.0250,10.0,6.5,19.0,7.4,'11111222,11111222,11111222' 
LOOP,urn:ioos:station:wmo:lopl1:1,2016-10-07T14:35:00Z,28.8850,-90.0250,10.0,7.6,26.0,8.9,'11111222,11111222,11111222' 
LOOP,urn:ioos:station:wmo:lopl1:1,2016-10-07T15:35:00Z,28.8850,-90.0250,10.0,7.4,31.0,8.4,'11111222,11111222,11111222' 
LOOP,urn:ioos:station:wmo:lopl1:1,2016-10-07T16:35:00Z,28.8850,-90.0250,10.0,7.6,21.0,8.7,'11111222,11111222,11111222' 
LOOP,urn:ioos:station:wmo:lopl1:1,2016-10-07T17:35:00Z,28.8850,-90.0250,10.0,6.1,19.0,7.5,'11111222,11111222,11111222' 
LOOP,urn:ioos:station:wmo:lopl1:1,2016-10-07T18:35:00Z,28.8850,-90.0250,10.0,7.5,19.0,8.8,'11111222,11111222,11111222' 
LOOP,urn:ioos:station:wmo:lopl1:1,2016-10-07T19:35:00Z,28.8850,-90.0250,10.0,6.0,9.0,7.6,'11111222,11111222,11111222' 
LOOP,urn:ioos:station:wmo:lopl1:1,2016-10-07T20:35:00Z,28.8850,-90.0250,10.0,7.4,8.0,8.5,'11111222,11111222,11111222' 
LOOP,urn:ioos:station:wmo:lopl1:1,2016-10-07T21:35:00Z,28.8850,-90.0250,10.0,7.6,13.0,9.0,'11111222,11111222,11111222' 
LOOP,urn:ioos:station:wmo:lopl1:1,2016-10-07T22:40:00Z,28.8850,-90.0250,10.0,7.5,7.0,10.3,'11111222,11111222,11111222' 
LOOP,urn:ioos:station:wmo:lopl1:1,2016-10-07T23:40:00Z,28.8850,-90.0250,10.0,8.7,9.0,9.9,'11111222,11111222,11111222' 
LOOP,urn:ioos:station:wmo:lopl1:1,2016-10-08T00:40:00Z,28.8850,-90.0250,10.0,9.1,6.0,11.4,'11111222,11111222,11111222' 
LOOP,urn:ioos:station:wmo:lopl1:1,2016-10-08T01:40:00Z,28.8850,-90.0250,10.0,7.9,7.0,10.2,'11111222,11111222,11111222' 
LOOP,urn:ioos:station:wmo:lopl1:1,2016-10-08T02:40:00Z,28.8850,-90.0250,10.0,8.2,7.0,10.9,'11111222,11111222,11111222' 
LOOP,urn:ioos:station:wmo:lopl1:1,2016-10-08T03:40:00Z,28.8850,-90.0250,10.0,6.5,10.0,8.8,'11111222,11111222,11111222' 
LOOP,urn:ioos:station:wmo:lopl1:1,2016-10-08T04:40:00Z,28.8850,-90.0250,10.0,5.9,356.0,8.7,'11111222,11111222,11111222' 
LOOP,urn:ioos:station:wmo:lopl1:1,2016-10-08T05:40:00Z,28.8850,-90.0250,10.0,4.4,345.0,7.1,'11111222,11111222,11111222' 
LOOP,urn:ioos:station:wmo:lopl1:1,2016-10-08T06:40:00Z,28.8850,-90.0250,10.0,5.8,7.0,8.3,'11111222,11111222,11111222' 
LOOP,urn:ioos:station:wmo:lopl1:1,2016-10-08T07:40:00Z,28.8850,-90.0250,10.0,6.3,5.0,8.6,'11111222,11111222,11111222' 
LOOP,urn:ioos:station:wmo:lopl1:1,2016-10-08T08:40:00Z,28.8850,-90.0250,10.0,6.6,1.0,8.6,'11111222,11111222,11111222' 
LOOP,urn:ioos:station:wmo:lopl1:1,2016-10-08T09:40:00Z,28.8850,-90.0250,10.0,8.5,9.0,10.1,'11111222,11111222,11111222' 
LOOP,urn:ioos:station:wmo:lopl1:1,2016-10-08T10:40:00Z,28.8850,-90.0250,10.0,10.8,4.0,13.1,'11111222,11111222,11111222' 
LOOP,urn:ioos:station:wmo:lopl1:1,2016-10-08T11:40:00Z,28.8850,-90.0250,10.0,10.5,6.0,12.4,'11111222,11111222,11111222' 
LOOP,urn:ioos:station:wmo:lopl1:1,2016-10-08T12:40:00Z,28.8850,-90.0250,10.0,11.6,7.0,14.9,'11111222,11111222,11111222' 
LOOP,urn:ioos:station:wmo:lopl1:1,2016-10-08T13:40:00Z,28.8850,-90.0250,10.0,11.8,16.0,14.0,'11111222,11111222,11111222' 
LOOP,urn:ioos:station:wmo:lopl1:1,2016-10-08T14:40:00Z,28.8850,-90.0250,10.0,10.8,19.0,12.7,'11111222,11111222,11111222' 
LOOP,urn:ioos:station:wmo:lopl1:1,2016-10-08T15:40:00Z,28.8850,-90.0250,10.0,10.8,19.0,12.3,'11111222,11111222,11111222' 
LOOP,urn:ioos:station:wmo:lopl1:1,2016-10-08T16:40:00Z,28.8850,-90.0250,10.0,9.5,22.0,11.3,'11111222,11111222,11111222' 
LOOP,urn:ioos:station:wmo:lopl1:1,2016-10-08T17:40:00Z,28.8850,-90.0250,10.0,7.5,29.0,9.1,'11111222,11111222,11111222' 
LOOP,urn:ioos:station:wmo:lopl1:1,2016-10-08T18:40:00Z,28.8850,-90.0250,10.0,6.6,11.0,7.9,'11111222,11111222,11111222' 
LOOP,urn:ioos:station:wmo:lopl1:1,2016-10-08T19:40:00Z,28.8850,-90.0250,10.0,4.8,7.0,6.8,'11111222,11111222,11111222' 
LOOP,urn:ioos:station:wmo:lopl1:1,2016-10-08T20:40:00Z,28.8850,-90.0250,10.0,5.3,4.0,6.7,'11111222,11111222,11111222' 
LOOP,urn:ioos:station:wmo:lopl1:1,2016-10-08T21:40:00Z,28.8850,-90.0250,10.0,4.6,340.0,7.0,'11111222,11111222,11111222' 
LOOP,urn:ioos:station:wmo:lopl1:1,2016-10-08T22:40:00Z,28.8850,-90.0250,10.0,4.8,343.0,6.6,'11111222,11111222,11111222' 
LOOP,urn:ioos:station:wmo:lopl1:1,2016-10-08T23:40:00Z,28.8850,-90.0250,10.0,5.7,356.0,8.1,'11111222,11111222,11111222' 
LOOP,urn:ioos:station:wmo:lopl1:1,2016-10-09T00:40:00Z,28.8850,-90.0250,10.0,5.7,336.0,9.0,'11111222,11111222,11111222' 
LOOP,urn:ioos:station:wmo:lopl1:1,2016-10-09T01:40:00Z,28.8850,-90.0250,10.0,7.0,7.0,10.9,'11111222,11111222,11111222' 
LOOP,urn:ioos:station:wmo:lopl1:1,2016-10-09T02:40:00Z,28.8850,-90.0250,10.0,10.6,13.0,15.0,'11111222,11111222,11111222' 
LOOP,urn:ioos:station:wmo:lopl1:1,2016-10-09T03:40:00Z,28.8850,-90.0250,10.0,13.7,7.0,16.3,'11111222,11111222,11111222' 
LOOP,urn:ioos:station:wmo:lopl1:1,2016-10-09T04:40:00Z,28.8850,-90.0250,10.0,13.5,9.0,15.8,'11111222,11111222,11111222' 
LOOP,urn:ioos:station:wmo:lopl1:1,2016-10-09T05:40:00Z,28.8850,-90.0250,10.0,14.4,4.0,17.8,'11111222,11111222,11111222' 